Columbia, MO

1:22 PM CDT on April 20, 2018 (GMT -0500)
Columbia Regional

Weather History for KCOU - July, 2013

Change the Weather History Date:

Wednesday, July 24, 2013

  Actual Average Record
Temperature  
Mean Temperature 73 °F 78 °F  
Max Temperature 81 °F 88 °F 110 °F (1934)
Min Temperature 64 °F 67 °F 52 °F (1904)
Degree Days  
Heating Degree Days 0 0  
Month to date heating degree days 0 0  
Since 1 June heating degree days 6 11  
Since 1 July heating degree days 0 0  
Cooling Degree Days 8 12  
Month to date cooling degree days 288 294  
Year to date cooling degree days 689 645  
Since 1 June cooling degree days 555 542  
Growing Degree Days 22 (Base 50)    
Moisture  
Dew Point 60 °F    
Average Humidity 68    
Maximum Humidity 87    
Minimum Humidity 48    
Precipitation  
Precipitation 0.00 in 0.13 in 1.95 in (1935)
Month to date precipitation 2.08 3.50  
Year to date precipitation 30.84 24.52  
Snow  
Snow 0.00 in 0.00 in 0.00 in (2015)
Month to date snowfall 0.0 0.0  
Since 1 June snowfall 0.0 0.0  
Since 1 July snowfall 0.0 0.0  
Snow Depth 0.00 in    
Sea Level Pressure  
Sea Level Pressure 29.99 in    
Wind  
Wind Speed 7 mph (NE)    
Max Wind Speed 14 mph    
Max Gust Speed 16 mph    
Visibility 10 miles    
Events      
T = Trace of Precipitation, MM = Missing Value Source: NWS Daily Summary

Daily Weather History Graph

Daily Weather History Graph

Search for Another Location

Airport or City:

Astronomy

Jul. 24, 2013 Rise Set
Actual Time 6:03 AM CDT 8:26 PM CDT
Civil Twilight 5:33 AM CDT 8:57 PM CDT
Nautical Twilight 4:55 AM CDT 9:34 PM CDT
Astronomical Twilight 4:14 AM CDT 10:15 PM CDT
Moon 9:35 PM CDT (7/24) 8:21 AM CDT (7/24)
Length of Visible Light 15h 24m
Length of Day
14h 23m
Waning Gibbous, 94% of the Moon is Illuminated
Jul 24
Waning Gibbous
Jul 29
Last Quarter
Aug 6
New
Aug 14
First Quarter
Aug 20
Full

Hourly Weather History & Observations

Time (CDT) Temp. Heat Index Dew Point Humidity Pressure Visibility Wind Dir Wind Speed Gust Speed Precip Events Conditions
12:54 AM 68.0 °F - 63.0 °F 84% 29.94 in 10.0 mi NE 8.1 mph - N/A   Clear
1:54 AM 66.9 °F - 61.0 °F 81% 29.94 in 10.0 mi ENE 8.1 mph - N/A   Clear
2:54 AM 68.0 °F - 61.0 °F 78% 29.94 in 10.0 mi ENE 8.1 mph - N/A   Overcast
3:54 AM 68.0 °F - 61.0 °F 78% 29.94 in 10.0 mi NNE 8.1 mph - N/A   Overcast
4:54 AM 66.0 °F - 61.0 °F 84% 29.95 in 10.0 mi NNE 6.9 mph - N/A   Scattered Clouds
5:54 AM 64.0 °F - 60.1 °F 87% 29.95 in 10.0 mi NE 6.9 mph - N/A   Clear
6:54 AM 64.9 °F - 60.1 °F 84% 29.96 in 10.0 mi NE 8.1 mph - N/A   Clear
7:54 AM 66.9 °F - 62.1 °F 84% 29.98 in 10.0 mi NE 9.2 mph - N/A   Clear
8:54 AM 70.0 °F - 63.0 °F 78% 30.00 in 10.0 mi ENE 8.1 mph - N/A   Clear
9:54 AM 72.0 °F - 60.1 °F 66% 30.00 in 10.0 mi East 9.2 mph - N/A   Clear
10:54 AM 73.9 °F - 60.1 °F 62% 30.01 in 10.0 mi ENE 8.1 mph - N/A   Clear
11:54 AM 77.0 °F - 60.1 °F 56% 30.02 in 10.0 mi NE 5.8 mph - N/A   Clear
12:54 PM 78.1 °F - 62.1 °F 58% 30.02 in 10.0 mi NE 8.1 mph - N/A   Partly Cloudy
1:54 PM 79.0 °F - 61.0 °F 54% 30.02 in 10.0 mi Variable 6.9 mph - N/A   Partly Cloudy
2:54 PM 80.1 °F 80.9 °F 60.1 °F 50% 30.01 in 10.0 mi NNE 9.2 mph - N/A   Partly Cloudy
3:54 PM 79.0 °F - 57.9 °F 48% 30.01 in 10.0 mi NE 10.4 mph - N/A   Partly Cloudy
4:54 PM 80.1 °F 80.7 °F 59.0 °F 48% 30.00 in 10.0 mi North 9.2 mph - N/A   Clear
5:54 PM 79.0 °F - 59.0 °F 50% 30.00 in 10.0 mi ENE 8.1 mph - N/A   Partly Cloudy
6:54 PM 77.0 °F - 60.1 °F 56% 30.00 in 10.0 mi ENE 9.2 mph - N/A   Clear
7:54 PM 73.0 °F - 61.0 °F 66% 30.01 in 10.0 mi ENE 4.6 mph - N/A   Clear
8:54 PM 71.1 °F - 60.1 °F 68% 30.01 in 10.0 mi ENE 4.6 mph - N/A   Clear
9:54 PM 69.1 °F - 59.0 °F 70% 30.03 in 10.0 mi ENE 5.8 mph - N/A   Clear
10:54 PM 66.9 °F - 59.0 °F 76% 30.03 in 10.0 mi East 4.6 mph - N/A   Clear
11:54 PM 64.9 °F - 59.0 °F 81% 30.04 in 10.0 mi East 4.6 mph - N/A   Clear